Location: *
(36.6333°S, 149.5833°W)
Time: 11:40:52
(UTC+00:00)

Daily predictions for brighter satellites

Satellite Brightness Start Highest point End
(mag) Time Altitude Azimuth Time Altitude Azimuth Time Altitude Azimuth
Cosmos 44 3.4 12:04:46 62° ENE 12:04:46 62° ENE 12:09:31 10° SE
Lacrosse 5 2.1 12:01:09 10° SW 12:06:16 68° SE 12:11:21 10° NE
Cosmos 1470 Rocket 4.0 12:12:05 54° SW 12:12:05 54° SW 12:15:54 10° S
Meteor 2-10 Rocket 4.3 12:10:26 34° NE 12:12:08 46° E 12:17:14 10° SSE
Cosmos 1302 Rocket 3.8 12:10:23 10° SSW 12:15:42 73° WNW 12:15:54 71° NW
MOZ.5/SAFIR/RUBIN 5/SL-8 4.2 12:15:33 10° SSE 12:20:10 57° E 12:21:09 46° NE
Cosmos 2279 Rocket 4.0 12:18:32 44° N 12:20:43 84° E 12:27:03 10° S
METEOR-M 4.2 12:19:39 36° NNE 12:21:56 79° ESE 12:27:21 10° S
ALOS 3.0 12:23:36 39° WSW 12:23:36 39° WSW 12:27:03 10° SSW
Cosmos 1869 Rocket 4.3 12:23:35 38° NE 12:24:41 48° E 12:28:55 10° SSE
H-2A R/B 3.9 12:21:21 10° NE 12:25:37 29° ESE 12:30:01 10° S
ADEOS II 3.3 12:29:37 27° WSW 12:29:37 27° WSW 12:32:59 10° SW
Cosmos 2333 Rocket 4.0 12:23:23 10° S 12:28:34 32° ESE 12:33:41 10° ENE
Cosmos 1933 Rocket 3.3 12:28:23 80° NW 12:28:37 85° W 12:33:01 10° S
Cosmos 1703 Rocket 3.6 12:24:56 10° S 12:29:26 77° E 12:30:30 51° NNE
Cosmos 2278 3.8 12:24:06 10° SSW 12:29:51 77° ESE 12:35:32 10° NNE
Cosmos 1300 2.9 12:31:20 58° S 12:31:20 58° S 12:34:13 10° S
NOSS 3-2 (C) 4.3 12:28:22 37° NW 12:32:28 73° WSW 12:40:39 10° SSE
Cosmos 1092 Rocket 4.2 12:26:22 10° SSW 12:32:32 53° W 12:34:07 43° NW
Cosmos 2322 Rocket 3.4 12:30:04 10° S 12:35:33 44° ESE 12:40:59 10° NE
USA 215 3.4 12:31:57 10° NNE 12:38:13 48° NW 12:44:34 10° SW
CZ-2C R/B 3.0 12:33:45 11° NNE 12:38:41 62° ESE 12:43:49 10° S
Cosmos 1980 Rocket 4.0 12:34:39 10° SW 12:36:27 16° WSW 12:36:27 16° WSW
CZ-2C R/B 2.5 12:37:09 10° S 12:42:27 78° WSW 12:44:24 41° NNW
Resurs 1-4 Rocket 4.3 12:47:13 10° WSW 12:47:13 10° WSW 12:47:24 10° WSW
BREEZE-M R/B 3.8 12:44:16 35° NNE 12:45:24 43° NE 12:51:50 10° ESE
SL-19 R/B 4.5 12:43:51 41° N 12:45:24 79° WNW 12:49:51 10° SSW
Cosmos 1455 3.8 12:44:17 17° NE 12:45:59 26° E 12:48:48 10° SSE
OAO 3 Copernicus 4.2 12:45:04 45° WNW 12:46:30 68° N 12:51:33 10° ENE
Aureole 3 4.0 12:45:32 10° SSW 12:49:53 53° W 12:51:18 40° NW
Cosmos 2180 Rocket 4.5 12:46:47 29° NNW 12:50:18 79° W 12:56:48 10° S
Chandra Rocket (1) 4.2 12:54:09 10° NE 12:54:45 10° NE 12:55:24 10° NE
Okean 1-7 4.3 12:53:59 10° SSW 12:56:52 24° WSW 12:56:52 24° WSW
Cosmos 1833 4.1 12:57:32 30° NNW 13:00:27 88° WSW 13:06:09 10° SSE
Cosmos 2219 Rocket 4.1 12:58:06 10° S 13:03:10 31° ESE 13:08:10 10° ENE
Cosmos 1892 3.2 13:00:13 10° S 13:03:37 51° E 13:06:47 11° NNE
BREEZE M DEB (TANK) 4.1 13:00:46 10° SW 13:03:59 49° SE 13:13:55 10° ENE
Cosmos 1703 3.5 13:08:15 10° SSW 13:11:39 38° W 13:12:00 37° WNW
Cosmos 1758 3.8 13:11:15 35° WNW 13:11:57 38° W 13:15:34 10° S
IRAS Rocket 4.4 13:06:25 10° NNE 13:12:03 80° ESE 13:17:46 10° SSW
ATLAS 5 CENTAUR R/B 4.1 13:03:32 21° WNW 13:12:07 46° WSW 13:16:46 10° SSE
Meteor 1-12 Rocket 4.2 13:08:05 18° N 13:12:22 83° W 13:18:07 10° S
Cosmos 2266 Rocket 4.0 13:09:09 10° S 13:15:29 87° W 13:21:52 10° N
Meteor 2-5 Rocket 3.8 13:09:44 10° S 13:15:47 85° W 13:21:43 10° N
GRACE-FO 1 4.4 13:15:34 26° N 13:17:28 73° W 13:21:02 10° S
GRACE-FO 2 4.4 13:16:01 25° N 13:17:54 72° W 13:21:29 10° S
NOSS 3-3 (A) 3.6 13:12:54 10° SW 13:18:58 72° WNW 13:24:09 10° NNE
Cosmos 1939 Rocket 4.4 13:17:10 10° NE 13:20:44 36° ESE 13:24:24 10° S
BlueWalker 3 3.5 13:20:00 18° WSW 13:21:49 25° SSW 13:25:00 10° SSE
Cosmos 1140 Rocket 3.7 13:21:53 23° NW 13:24:58 55° WSW 13:30:03 10° S
Cosmos 2360 Rocket 2.2 13:20:27 10° SSW 13:26:11 88° WNW 13:31:49 10° NNE
Cosmos 1484 Rocket 4.5 13:27:05 10° NE 13:30:21 34° ESE 13:33:42 10° S
CZ-4 R/B 4.2 13:29:00 12° NNW 13:33:07 40° W 13:37:34 10° SSW
Cosmos 407 Rocket 3.4 13:29:23 15° NNW 13:33:41 78° WSW 13:38:55 10° SSE
OAO 2 Rocket 3.4 13:33:50 14° W 13:38:04 60° NNW 13:43:05 10° ENE
Lacrosse 5 rocket 1.2 13:35:37 10° SW 13:39:40 90° NW 13:43:48 10° NE
NOSS 3-3 (C) 3.8 13:34:27 10° SW 13:40:15 52° WNW 13:45:18 10° N
ASTRO E2 3.1 13:39:17 21° NW 13:40:28 28° N 13:43:06 10° ENE
SL-16 R/B 3.0 13:36:36 10° SW 13:41:26 29° WNW 13:46:14 10° NNW
Helios 1A Rocket 3.6 13:39:08 10° S 13:42:29 32° WSW 13:44:47 17° NW
Cosmos 2251 Rocket 3.6 13:40:58 10° NNW 13:46:20 78° WSW 13:51:45 10° SSE
Cosmos 1655 Rocket 4.0 13:40:55 10° S 13:47:23 78° W 13:53:46 10° N
Lacrosse 5 3.3 13:45:34 10° W 13:48:43 17° WNW 13:51:51 10° NNW
YAOGAN 6 3.7 13:48:19 17° WNW 13:49:23 20° W 13:51:45 10° SW
Cosmos 1825 3.0 13:47:34 10° SW 13:50:13 24° W 13:52:12 14° NW
USA 238 DEB 4.5 13:43:52 14° WNW 13:50:33 48° SW 13:57:46 10° SSE
USA 238 4.5 13:43:57 14° WNW 13:50:39 48° SW 13:57:53 10° SSE
SL-16 R/B 2.8 13:44:49 10° SSE 13:51:11 74° ENE 13:57:27 10° N
SL-08 RB Rocket 4.4 13:49:01 10° NNE 13:53:32 59° ESE 13:58:04 10° S
Meteor 1-28 Rocket 3.0 13:51:19 10° S 13:54:52 67° WSW 13:58:23 10° NNW
Cosmos 405 Rocket 3.7 13:56:05 13° NW 13:58:31 25° WSW 14:01:29 10° SSW
Cosmos 2242 Rocket 4.4 13:54:28 10° SSW 13:58:38 34° W 14:02:45 10° NNW
SL-4 R/B 2.2 13:54:30 10° SW 13:58:46 81° SE 14:03:09 10° NE
Cosmos 1908 Rocket 4.1 13:58:04 10° N 14:02:30 66° E 14:07:00 10° SSE
ATLAS CENTAUR R/B 2.4 14:00:48 10° NNW 14:04:52 75° NE 14:10:37 10° SE
H-2A R/B 2.9 14:00:38 10° NNW 14:04:52 28° W 14:09:15 10° SW
ARIANE 5 R/B 4.3 14:03:12 10° NE 14:08:01 38° ESE 14:12:52 10° S
Geosat 4.1 14:05:06 10° NNE 14:10:07 84° ESE 14:15:12 10° SSW
Cosmos 2297 Rocket 3.4 14:07:14 10° N 14:12:34 44° ENE 14:17:56 10° SE
Cosmos 2333 Rocket 2.9 14:07:37 10° SW 14:12:46 33° WNW 14:17:51 10° NNW
Thor Agena Rocket 4.0 14:12:07 10° NNW 14:16:47 37° W 14:21:30 10° SSW
